Lapse_Rate
6.1 6.1 6.2 6.1 6.0 6.0 6.0 6.0 6.0 6.1 5.9 5.7 5.6 5.5 5.5 5.8 5.8 6.1 5.9 5.8 5.9 5.9 5.8 5.8 6.0 6.1 6.1 6.0 6.0 6.0 5.9 6.0 6.0 5.9 5.9 5.9 5.9 5.7 5.6 5.6 5.5 5.4 5.5
6.3 6.2 6.2 6.2 6.1 6.2 6.2 6.1 6.0 6.0 5.9 5.6 5.8 5.7 5.7 5.7 5.7 5.8 5.9 5.8 5.7 5.8 5.7 5.7 5.8 6.0 6.0 6.1 6.0 6.0 6.1 6.1 6.1 5.8 5.9 6.0 5.9 5.8 5.3 5.3 5.5 5.6 5.6
6.8 6.5 6.5 6.4 6.3 6.1 6.2 6.1 6.2 6.2 6.2 6.0 5.9 5.9 5.8 5.8 5.7 5.6 5.7 5.8 6.0 5.9 5.8 5.8 5.6 5.9 5.8 5.9 6.0 6.0 6.2 6.2 6.2 6.1 5.9 6.0 6.0 5.9 5.5 5.6 5.6 5.9 5.7
6.7 6.7 6.7 6.6 6.5 6.4 6.3 6.3 6.3 6.2 6.1 6.1 5.9 5.8 5.8 5.7 5.8 5.7 5.6 5.6 5.7 5.6 5.7 5.9 6.0 6.1 6.0 6.0 6.0 6.1 6.1 6.1 6.2 6.2 6.1 6.1 6.0 5.9 5.8 5.7 6.0 5.9 5.8
6.6 6.5 6.5 6.6 6.5 6.5 6.5 6.5 6.3 6.1 6.0 5.9 5.9 6.0 5.9 5.8 5.7 5.6 5.7 5.7 5.8 5.7 5.7 5.6 5.6 5.9 6.1 6.0 5.8 6.0 6.1 6.1 6.1 6.1 5.9 6.0 6.1 6.0 5.8 5.6 5.9 6.0 6.0
6.6 6.7 6.4 6.4 6.5 6.6 6.5 6.4 6.3 6.2 6.1 6.1 6.0 5.9 5.9 5.7 5.7 5.4 5.2 5.4 5.4 5.7 5.8 5.7 5.8 5.7 5.8 5.9 5.9 5.9 5.9 6.1 6.3 6.2 6.3 6.3 6.2 6.3 6.1 5.8 5.8 6.1 6.1
6.6 6.6 6.6 6.5 6.5 6.5 6.5 6.4 6.4 6.3 6.2 6.2 6.1 6.0 5.9 5.7 5.5 5.5 5.7 5.8 5.6 5.6 5.5 5.5 5.5 5.6 5.7 5.6 5.7 5.8 6.0 6.0 6.1 6.1 6.3 6.4 6.1 5.9 5.6 6.1 5.9 5.9 6.2
7.1 7.0 6.9 6.8 6.8 6.7 6.6 6.6 6.6 6.5 6.4 6.2 6.1 5.9 5.9 5.8 5.8 5.7 5.9 5.9 5.9 6.0 6.0 5.7 5.7 5.7 5.6 5.7 6.0 5.9 5.8 6.0 6.1 5.9 6.0 6.1 6.3 6.1 5.9 5.9 5.8 6.0 6.2
7.2 7.3 7.2 7.1 7.0 6.9 6.9 6.7 6.6 6.5 6.4 6.4 6.2 6.1 6.0 6.0 5.8 5.7 5.7 5.8 5.7 5.7 5.8 5.8 5.6 5.6 5.6 5.6 5.7 5.9 5.8 5.9 6.0 6.0 5.9 5.9 6.1 6.0 6.0 5.9 6.1 6.0 6.1
7.5 7.7 7.3 7.4 7.4 7.2 7.1 6.9 6.8 6.9 6.8 6.7 6.4 6.2 6.0 5.8 5.7 5.8 5.7 5.5 5.6 5.6 5.5 5.6 5.6 5.7 5.8 5.8 5.6 5.7 5.7 6.0 6.0 6.0 6.0 5.9 5.7 5.7 5.8 5.7 5.9 6.0 5.6
7.5 7.3 7.3 7.4 7.5 7.5 7.3 7.3 7.3 7.1 6.7 6.5 6.3 6.1 6.0 6.0 5.8 5.6 5.5 5.4 5.5 5.6 5.6 5.5 5.4 5.4 5.7 5.9 5.9 5.7 5.7 5.7 5.9 5.9 5.8 5.8 6.0 6.0 6.0 6.0 5.9 5.8 5.8
7.8 7.5 7.4 7.4 7.7 7.7 7.4 7.4 7.3 7.0 6.7 6.6 6.4 6.2 6.1 6.0 5.8 5.7 5.6 5.5 5.4 5.5 5.6 5.6 5.5 5.2 5.2 5.5 5.8 5.8 5.7 5.6 5.7 5.9 5.9 5.8 5.8 5.8 6.0 5.9 5.8 5.8 5.9
7.8 7.8 7.4 7.6 7.6 7.6 7.3 7.3 7.1 7.1 6.9 6.6 6.4 6.2 5.9 5.6 5.4 5.4 5.6 5.7 5.7 5.8 5.7 5.7 5.6 5.3 5.1 5.1 5.2 5.6 5.7 5.5 5.5 5.6 5.7 5.7 5.8 5.7 5.7 5.6 5.7 5.9 5.8
7.7 7.6 7.4 7.5 7.9 7.5 7.5 7.4 7.4 7.2 6.8 6.5 6.3 6.1 5.7 5.6 5.5 5.5 5.6 5.7 5.8 5.9 5.8 5.8 5.8 5.7 5.6 5.5 5.2 5.1 5.2 5.5 5.5 5.4 5.5 5.6 5.6 5.7 5.8 5.7 5.6 5.6 5.6
7.5 7.5 7.4 7.9 7.8 7.5 7.7 7.6 7.4 6.9 6.6 6.4 6.0 5.8 5.6 5.4 5.4 5.4 5.4 5.5 5.6 5.8 6.0 5.8 5.9 5.9 5.7 5.5 5.3 5.1 5.0 5.1 5.5 5.6 5.5 5.6 5.7 5.7 5.8 5.8 5.7 5.6 5.5
7.0 5.8 7.4 8.0 7.6 7.6 7.7 7.7 7.1 6.7 6.5 6.2 5.9 5.5 5.5 5.7 5.7 5.8 5.3 5.0 5.1 4.9 4.9 5.2 5.3 5.1 4.9 5.0 5.0 5.0 4.9 4.6 5.0 5.3 5.4 5.4 5.6 5.8 5.8 5.8 5.7 5.6 5.5
6.1 5.2 6.5 7.7 7.8 7.7 7.7 7.3 7.0 6.6 6.2 5.9 5.6 5.6 5.7 5.6 5.9 5.5 4.7 4.5 4.2 4.2 4.2 4.6 4.7 4.7 4.7 4.7 4.6 4.6 4.5 4.3 4.2 4.7 5.0 5.4 5.4 5.6 5.7 5.8 5.8 5.6 5.7
5.1 6.0 7.0 7.4 7.7 7.9 7.6 7.2 6.7 6.3 6.2 5.9 5.9 5.8 5.8 5.8 5.9 5.4 5.0 4.2 4.1 4.3 4.4 4.4 4.6 4.4 4.2 4.4 4.5 4.3 4.5 4.9 4.6 4.6 4.7 4.7 5.0 5.4 5.4 5.5 5.5 5.6 5.5
6.1 6.5 7.1 7.8 7.7 7.6 7.1 6.7 6.5 6.5 6.2 5.8 5.7 5.6 5.7 5.7 5.7 5.5 5.3 4.7 4.4 4.7 4.7 4.9 4.7 4.8 4.9 4.6 4.6 4.3 4.5 4.6 4.7 4.7 5.2 5.0 4.6 4.9 4.8 5.2 5.5 5.5 5.5
7.0 6.7 7.2 7.5 7.5 7.1 6.9 6.5 6.6 6.4 5.9 5.7 5.3 5.6 5.7 5.7 5.7 5.7 5.5 5.5 5.2 5.1 5.2 5.3 5.1 4.8 4.7 4.6 4.7 4.6 4.5 4.9 5.0 4.7 5.0 5.2 5.1 5.1 5.6 5.5 5.5 5.6 5.2
6.0 6.7 6.8 6.8 6.8 6.8 6.7 6.5 6.1 6.0 5.6 5.1 5.0 5.6 5.6 5.5 5.7 5.8 5.8 5.9 5.8 6.0 5.8 5.7 5.4 5.2 5.0 4.8 4.7 4.8 4.9 5.0 5.0 5.2 5.5 5.4 5.3 5.6 5.6 5.6 5.7 5.3 5.2
6.8 6.9 7.2 6.6 6.1 6.3 6.4 6.2 5.9 5.9 5.5 4.9 5.2 5.8 5.4 5.5 5.7 5.9 5.9 5.9 6.0 6.0 6.1 6.0 6.1 5.9 5.7 5.5 5.3 5.1 4.9 5.0 5.1 5.3 5.2 5.0 4.9 5.2 5.1 4.8 4.9 5.0 4.9
7.0 6.8 6.8 6.6 6.1 6.0 5.7 5.6 5.8 5.8 4.9 5.1 5.8 5.9 5.5 5.6 5.8 6.0 6.0 6.0 6.0 6.0 5.9 6.0 6.0 5.8 5.7 5.6 5.6 5.6 5.6 5.4 5.2 5.3 5.2 5.2 5.3 5.3 5.2 5.1 5.1 5.1 5.2
6.2 6.0 6.0 5.8 5.8 5.5 5.3 5.5 5.6 5.2 5.0 5.5 5.6 5.4 5.5 5.4 5.7 5.8 6.0 6.0 5.9 5.8 6.0 5.9 6.0 6.0 6.0 6.0 5.9 5.9 5.9 5.8 5.7 5.7 5.7 5.6 5.5 5.4 5.3 5.2 5.1 5.0 4.9
6.2 5.6 5.6 5.8 5.5 5.2 5.2 5.1 5.3 5.1 5.1 5.4 5.3 5.0 4.9 5.0 5.3 5.5 5.4 5.5 5.4 5.4 5.4 5.5 5.4 5.5 5.6 5.7 5.8 5.9 5.9 5.8 5.7 5.5 5.5 5.5 5.5 5.4 5.3 5.3 5.3 5.2 5.2
5.5 6.2 6.0 5.4 5.4 5.4 5.5 5.4 5.1 5.2 5.2 5.2 5.3 5.1 5.1 5.1 5.0 5.1 5.2 5.1 5.0 5.1 5.2 5.1 4.9 4.9 4.9 4.9 4.9 4.9 5.0 5.1 5.1 5.1 5.0 5.0 5.0 5.1 5.1 5.1 5.2 5.2 5.2
Wind_Speed
9 8 8 7 7 6 6 6 6 4 5 5 5 5 5 4 4 4 4 4 5 4 4 4 6 3 3 4 4 3 4 3 4 1 1 1 3 5 7 10 10 8 6
9 8 10 8 7 7 7 7 6 6 5 5 5 6 6 6 5 5 5 5 6 5 6 5 6 3 5 4 3 5 4 5 4 4 2 2 2 4 4 5 7 6 7
7 8 8 8 9 9 9 6 6 6 6 6 6 6 6 6 6 6 6 6 6 6 6 6 7 5 6 4 4 4 4 3 4 3 3 2 1 4 3 3 3 3 5
8 8 9 9 9 8 6 6 6 7 7 7 7 7 7 7 7 7 7 6 6 6 7 7 7 6 7 6 5 6 5 4 4 3 3 3 2 3 4 4 3 3 4
10 9 10 8 7 7 7 7 7 7 8 7 7 6 7 6 6 7 7 7 7 7 7 7 7 8 11 9 4 6 5 4 3 4 3 3 3 4 9 5 5 4 4
10 11 8 6 6 6 7 7 6 7 6 6 6 7 7 6 9 12 9 6 7 7 7 6 7 9 10 13 14 13 8 6 6 4 4 6 9 8 7 6 5 3 3
11 9 8 7 8 7 6 6 7 7 6 7 7 7 8 7 10 10 9 6 6 6 7 7 6 6 9 8 11 14 12 12 7 10 6 9 7 11 9 9 10 7 4
10 8 7 7 7 6 6 7 7 5 6 5 6 6 6 3 4 7 5 4 5 6 6 8 7 8 7 7 8 7 8 8 11 7 10 10 11 11 15 14 13 6 3
11 9 7 7 7 6 8 8 6 3 2 0 1 2 5 4 7 7 5 3 5 7 6 6 7 8 10 12 8 8 8 7 8 16 14 8 9 14 14 8 8 7 3
11 12 11 9 8 7 5 4 3 3 4 4 4 5 6 5 9 9 8 3 5 5 5 6 10 11 11 12 8 8 8 8 7 4 3 6 10 9 17 14 10 10 4
7 8 9 8 7 7 5 4 4 5 5 5 4 4 4 4 5 7 7 5 4 5 5 7 5 9 11 13 12 7 9 7 7 6 5 4 4 7 9 9 11 10 9
10 7 6 9 7 6 8 5 5 6 6 5 3 4 3 5 6 5 7 5 7 5 6 5 6 10 8 7 6 12 12 4 3 4 3 4 6 7 8 10 11 13 12
10 9 7 10 9 7 7 6 5 6 4 2 2 2 4 4 4 9 8 8 10 7 6 6 10 9 8 7 8 6 5 4 4 4 7 6 6 5 5 5 9 12 9
14 12 10 10 9 6 4 4 5 5 4 3 1 2 3 3 3 4 4 4 8 7 7 6 8 11 9 7 4 4 4 4 5 4 5 4 2 3 6 6 6 6 5
4 13 10 9 9 7 4 3 4 3 4 4 1 1 3 4 3 8 8 6 6 6 6 5 5 3 3 3 3 3 3 4 4 4 4 4 4 4 4 4 3 4 5
7 2 6 8 6 6 5 3 2 4 8 4 3 2 1 8 12 12 14 14 13 7 2 3 5 4 4 3 3 3 3 4 3 3 4 4 5 5 5 3 2 3 5
8 11 4 7 6 6 4 5 4 1 4 5 7 6 9 12 11 11 12 13 8 3 2 4 4 4 4 3 3 3 2 3 2 3 4 4 4 4 4 4 5 6 6
5 15 7 7 6 5 5 5 4 4 2 3 3 7 9 9 10 8 9 8 4 3 3 4 4 4 3 3 3 2 3 3 1 2 2 2 3 3 3 4 4 5 4
18 10 6 5 5 6 5 4 4 4 3 4 1 1 4 7 7 7 3 1 2 4 5 5 4 4 4 4 3 3 3 2 1 1 2 2 2 2 2 2 2 3 4
10 12 8 7 6 5 5 5 4 4 4 5 4 4 1 1 2 2 2 2 2 3 3 3 3 4 4 3 3 3 3 3 3 2 2 1 1 2 2 2 3 3 3
6 7 12 7 7 6 5 5 4 4 4 5 6 4 7 4 5 4 4 4 2 3 4 4 4 3 3 3 3 3 3 3 3 3 3 3 3 3 3 3 3 4 5
6 7 7 7 5 5 5 4 5 5 5 6 6 4 9 4 4 5 5 4 4 4 3 3 3 3 3 2 2 3 3 3 3 3 3 3 3 3 3 4 4 4 5
6 6 5 4 5 5 5 4 4 4 5 6 5 4 4 5 5 5 5 5 4 4 4 4 4 4 3 3 2 2 2 2 1 2 3 3 3 3 3 3 3 3 3
6 6 5 4 4 4 4 5 4 6 5 4 4 4 4 5 5 6 5 5 4 4 4 4 4 5 4 4 4 5 4 2 1 0 2 3 2 2 2 1 1 1 1
6 5 5 5 5 5 5 5 6 6 5 4 5 4 4 4 5 6 5 4 4 4 5 5 4 6 7 8 7 8 9 8 7 6 4 4 4 5 3 3 3 3 4
5 5 4 4 5 5 5 6 6 5 5 5 5 4 4 4 4 5 4 4 5 5 6 4 5 9 10 10 12 14 14 13 11 13 9 4 4 4 4 5 6 3 4
Wind_Direction
186 182 194 202 201 199 201 206 206 200 231 229 217 209 240 236 220 225 235 235 242 255 264 247 262 259 251 212 172 178 199 171 203 312 353 123 143 170 144 139 143 143 149
190 181 196 197 192 203 208 206 196 209 210 224 209 216 225 238 240 236 238 233 230 242 258 258 259 264 261 244 200 221 192 179 173 189 177 191 156 161 135 139 144 165 157
178 183 187 196 201 213 219 212 209 215 219 223 217 217 222 225 229 230 228 233 227 229 233 238 256 240 255 249 220 215 215 177 181 162 175 173 119 146 134 133 142 150 184
180 190 196 198 204 206 207 210 215 216 222 223 222 225 225 226 223 222 225 235 232 228 234 230 237 233 237 239 227 226 202 188 171 174 190 160 150 149 159 169 175 184 188
180 191 206 200 201 194 197 207 213 215 224 222 227 230 235 235 237 220 219 221 229 239 235 228 230 232 227 225 216 234 194 191 168 185 193 170 175 163 196 174 190 176 203
189 203 199 187 194 208 209 211 217 229 228 232 242 240 244 243 243 236 229 227 231 236 247 244 234 234 238 235 227 230 202 186 196 182 200 204 199 205 183 186 177 166 216
196 197 190 189 199 204 210 212 224 233 237 231 235 237 244 239 238 249 254 251 238 235 244 248 252 244 233 235 232 230 217 218 199 195 199 213 195 196 186 189 196 197 200
197 193 185 180 194 196 194 215 229 217 222 230 246 246 258 289 308 309 311 258 250 250 231 237 232 248 243 234 244 235 229 203 215 214 211 216 211 192 190 197 197 171 78
201 194 178 183 196 193 207 216 222 204 177 320 83 358 349 355 347 359 347 269 267 261 246 230 226 237 242 238 240 239 242 232 219 210 214 231 222 205 189 158 177 172 187
206 195 179 176 183 201 187 148 126 128 126 96 65 32 15 360 10 22 9 335 287 280 276 250 231 239 237 235 219 232 244 242 220 194 211 232 231 218 192 197 178 188 169
172 176 178 163 156 142 138 127 116 111 101 75 54 24 17 2 345 11 1 333 321 306 284 287 275 243 246 248 220 219 226 242 231 219 218 200 186 206 200 202 192 196 194
163 156 143 126 124 119 119 108 104 106 95 71 47 355 345 343 337 337 332 312 319 298 284 284 286 283 262 265 207 229 240 233 234 219 207 226 214 202 204 206 207 207 215
138 125 128 115 117 127 131 128 109 104 105 96 74 358 329 331 325 322 323 325 318 303 288 296 304 280 258 274 239 231 210 211 210 219 236 236 217 219 211 208 212 203 209
138 137 140 135 122 120 118 137 125 134 133 123 60 20 327 309 307 301 309 307 300 301 303 303 288 279 263 266 246 216 221 209 197 214 229 238 227 185 202 210 211 197 186
150 134 140 133 126 134 105 137 156 163 133 133 161 103 1 333 312 316 310 308 292 282 318 290 278 255 246 245 241 222 213 213 218 217 217 213 204 196 197 172 180 178 192
22 268 152 130 135 139 137 154 5 101 115 103 126 148 271 259 293 309 313 313 301 279 232 263 275 271 271 266 255 243 227 218 218 220 217 209 215 205 193 164 150 192 209
77 270 190 146 144 146 151 195 162 253 192 231 237 234 231 262 293 302 311 324 321 126 279 291 283 284 279 269 267 266 247 230 234 228 229 219 210 209 189 187 200 204 218
210 234 196 156 152 155 177 199 159 183 174 262 232 212 240 248 277 304 315 335 4 328 329 341 335 329 325 323 322 311 313 318 300 294 289 273 239 217 207 221 209 211 198
193 190 170 151 159 180 184 183 184 176 200 240 287 263 244 265 298 287 338 30 339 335 341 349 347 342 345 342 337 332 316 295 282 285 271 259 254 224 229 219 199 185 131
181 167 156 170 185 184 187 190 190 184 196 229 233 233 163 336 336 308 296 269 343 323 315 339 347 345 341 354 353 359 357 348 353 356 337 322 275 222 196 180 180 172 154
174 167 174 180 180 177 178 198 188 178 208 218 234 212 183 208 250 243 275 296 320 313 319 329 337 335 340 350 358 9 15 19 30 37 28 40 43 51 61 75 73 84 129
165 175 169 165 179 176 184 193 184 200 205 227 245 206 187 217 239 253 263 265 269 256 244 260 290 291 297 307 333 339 12 29 36 59 53 50 56 55 55 65 74 79 85
160 160 160 166 188 163 180 196 185 194 225 226 220 205 196 224 228 242 252 261 246 237 228 217 241 259 243 255 271 294 318 318 15 58 92 86 75 71 65 68 70 69 78
156 159 162 189 175 201 198 209 193 218 221 244 239 227 219 216 231 241 245 256 265 255 225 217 220 241 261 251 244 245 248 247 173 160 139 138 137 125 107 108 126 128 152
151 171 174 194 200 206 208 200 213 216 206 217 237 220 240 208 234 245 245 237 243 243 245 216 222 235 241 239 236 235 237 238 229 215 193 183 204 207 211 215 204 224 219
171 183 168 198 217 196 213 218 201 200 192 209 222 206 246 246 240 249 256 256 251 238 240 233 213 227 238 243 247 246 239 237 234 231 218 208 219 224 224 242 257 241 247